Flag for Brazil Weather past 2 weeks in Rio de Janeiro, Rio de Janeiro, Brazil

Now
75 °F

Fog.


Feels Like: 76 °F
Forecast: 63 / 84 °F
Wind: 7 mph from North

Location: Rio De Janeiro Airport

Current Time: Aug 22, 2014 at 11:44:29 AM

Latest Report: Aug 22, 2014 at 11:00 AM


Visibility: 3 mi

Pressure: 30.07 "Hg

Humidity: 78%

Dew point: 68 °F

Location of Rio de JaneiroLocation

Historic Weather in Rio de Janeiro — Graph

°F

Rio de Janeiro temperature yesterday

Maximum temperature yesterday: 75 °F (at 12:00 PM)
Minimum temperature yesterday: 66 °F (at 6:00 AM)
Average temperature yesterday: 72 °F

Past Weeks' High & Low Weather Summary

 TemperatureHumidityPressure
High84 °F (Aug 12, 4:00 PM)100% (Aug 14, 12:00 PM)30.39 "Hg (Aug 14, 12:00 PM)
Low61 °F (Aug 14, 6:00 AM)47% (Aug 7, 12:00 PM)29.92 "Hg (Aug 12, 3:00 PM)
Average71 °F77%30.17 "Hg
* Reported Aug 7 10:00 AM — Aug 22 10:00 AM, Rio de Janeiro, Weather by CustomWeather, © 2014

Note: Actual official high and low records may vary slightly from our data, if they occured in-between our weather recording intervals... More about our weather records

Advertising

Rio de Janeiro weather history for previous 24 hours

 ConditionsComfort  
Time TempWeatherWind HumidityBarometerVisibility
10:00 AM
Aug 22
72 °FFog.8 mph88%30.09 "Hg1 mi
9:00 AM70 °FFog.7 mph88%30.09 "Hg1 mi
8:00 AM70 °FFog.7 mph88%30.09 "Hg2 mi
7:00 AM68 °FFog.5 mph94%30.07 "Hg2 mi
6:00 AM68 °FPartly sunny.6 mph94%30.07 "Hg4 mi
11:00 PM
Aug 21
72 °FClear.2 mph78%30.09 "Hg10 mi
10:00 PM72 °FClear.3 mph78%30.09 "Hg10 mi
9:00 PM72 °FClear.3 mph83%30.09 "Hg10 mi
8:00 PM72 °FClear.3 mph78%30.07 "Hg10 mi
7:00 PM72 °FClear.7 mph83%30.07 "Hg10 mi
6:00 PM72 °FClear.10 mph83%30.07 "Hg10 mi
5:00 PM73 °FClear.10 mph83%30.07 "Hg10 mi
4:00 PM75 °FSunny.13 mph78%30.07 "Hg10 mi
3:00 PM75 °FPassing clouds.13 mph78%30.07 "HgN/A
2:00 PM75 °FPassing clouds.14 mph78%30.07 "HgN/A
1:00 PM73 °FPassing clouds.13 mph83%30.09 "HgN/A
12:00 PM75 °FPassing clouds.2 mph74%30.12 "Hg4 mi
11:00 AM72 °FFog.6 mph83%30.18 "Hg6 mi
Weather by CustomWeather, © 2014

See weather overviewHow to use our weather pages